SCP
0 0 0 0 0 0 0 0 0 0 0 0 0 0 0 0 0 0 0 -0 -0 -0 -0 -0 0 0 -0 -0 -0 -0 0 -0 -0 0 0 0 0 0 0 0 0 0 0 0 0 0 0
0 0 0 0 0 0 0 0 0 0 0 0 0 0 0 0 0 0 -0 -0 -0 -0 -0 -0 0 0 -0 -0 -0 -0 0 0 -0 0 -0 0 0 -0 -0 0 0 0 0 0 0 0 0
0 0 0 0 0 0 0 0 0 0 0 0 0 0 0 0 0 0 -0 -0 -0 -0 -0 0 -0 -0 0 0 0 0 0 -0 -0 -0 -0 0 0 0 0 0 -0 0 -0 0 0 0 0
0 0 0 0 0 0 0 0 0 0 0 0 0 0 0 -0 -0 -0 -0 -0 -0 0 -0 0 0 0 0 0 -0 -0 -0 -0 -0 -0 -0 0 -0 -0 -0 -0 0 0 -0 0 0 0 0
0 0 0 0 0 0 0 0 0 0 0 0 0 0 0 0 -0 -0 -0 -0 0 0 0 0 0 0 0 0 -0 -0 -0 -0 0 0 -0 -0 0 -0 -0 -0 0 0 -0 0 0 0 0
0 0 0 0 0 0 0 0 0 0 0 0 0 0 0 0 0 -0 -0 0 0 0 0 0 0 0 0 0 0 0 -0 -0 -0 -0 -0 -0 0 -0 -0 -0 0 0 -0 0 0 0 0
0 0 0 0 0 0 0 0 0 0 0 0 0 0 0 0 0 -0 0 0 0 0 0 0 0 0 0 0 0 0 0 0 -0 0 -0 0 -0 -0 -0 -0 0 0 -0 0 0 0 0
0 0 0 0 0 0 0 0 0 0 0 0 0 0 0 0 0 0 0 0 -0 0 0 0 0 0 0 0 0 0 0 0 0 0 0 -0 0 -0 -0 -0 -0 0 0 -0 0 0 0
0 0 0 0 0 0 0 0 0 0 0 0 0 0 0 0 0 0 0 -0 0 0 0 0 0 0 0 0 0 0 0 0 0 0 0 0 -0 -0 -0 -0 -0 -0 0 0 -0 0 0
0 0 0 0 0 0 0 0 0 0 0 0 0 0 0 -0 0 0 0 0 0 -0 0 0 0 0 0 0 0 0 0 0 0 0 0 -0 -0 -0 -0 -0 -0 -0 0 0 0 -0 0
-0 -0 -0 -0 0 0 0 0 0 0 0 0 0 0 0 0 0 0 0 0 0 0 0 0 0 0 0 0 0 0 0 0 0 0 0 0 -0 -0 -0 -0 -0 -0 -0 0 0 0 -0
-0 -0 -0 -0 -0 -0 -0 -0 -0 -0 0 0 0 0 -0 0 0 0 0 0 0 0 0 0 0 0 0 0 0 0 0 0 0 0 0 -0 -0 -0 -0 -0 0 0 0 0 0 0 -0
-0 -0 -0 -0 -0 -0 -0 -0 -0 -0 -0 -0 -0 0 0 0 0 0 0 0 0 0 0 0 0 0 0 0 0 0 0 0 0 0 0 0 -0 0 -0 -0 0 0 0 0 0 0 -0
-0 0 -0 0 -0 -0 -0 -0 -0 -0 -0 -0 -0 -0 -0 0 0 0 0 0 0 0 0 0 0 0 0 0 0 0 0 0 0 0 0 0 0 0 0 0 0 0 0 0 0 0 0
0 0 0 0 0 -0 -0 -0 -0 -0 -0 -0 -0 0 0 0 0 0 0 0 0 0 0 0 0 0 0 0 0 0 0 0 0 0 0 0 0 0 0 0 0 0 0 0 0 0 0
-0 -0 -0 0 -0 -0 -0 -0 -0 -0 -0 -0 0 0 0 0 0 0 0 0 0 0 0 0 0 0 0 0 0 0 0 0 0 0 0 0 0 0 0 0 0 0 0 0 0 0 0
0 0 0 0 -0 -0 -0 -0 -0 -0 -0 -0 0 0 0 0 0 0 0 0 0 0 0 0 0 0 0 0 0 0 0 0 0 0 0 0 0 0 0 0 0 0 0 0 0 0 0
0 0 0 0 0 0 0 -0 -0 -0 -0 -0 0 0 0 0 0 0 0 0 0 0 0 0 0 0 0 0 0 0 0 0 0 0 0 0 0 0 0 0 0 0 0 0 0 0 0
0 0 0 0 0 0 0 -0 -0 -0 0 0 0 0 0 0 0 0 0 0 0 0 0 0 0 0 0 0 0 0 0 0 0 0 0 0 0 0 0 0 0 0 0 0 0 0 0
0 0 0 0 0 0 0 -0 -0 -0 0 0 0 0 0 0 0 0 0 0 0 0 0 0 0 0 0 0 0 0 0 0 0 0 0 0 0 0 0 0 0 0 0 0 0 0 0
0 0 0 0 -0 -0 -0 -0 -0 -0 0 0 0 0 0 0 0 0 0 0 0 0 0 0 0 0 0 0 0 0 0 0 0 0 0 0 0 0 0 0 0 0 0 0 0 0 0
-0 -0 0 0 0 0 0 -0 -0 -0 0 0 0 0 0 0 0 0 0 0 0 0 0 0 0 0 0 0 0 0 0 0 0 0 0 0 0 0 0 0 0 0 0 0 0 0 0
-0 -0 -0 -0 -0 -0 0 -0 -0 -0 0 0 0 0 0 0 0 0 0 0 0 0 0 0 0 0 0 0 0 0 0 0 0 0 0 0 0 0 0 0 0 0 0 0 0 0 0
-0 -0 -0 -0 -0 0 0 0 0 0 0 0 0 0 0 0 0 0 0 0 0 0 0 0 0 0 0 0 0 0 0 0 0 0 0 0 0 0 0 0 0 0 0 0 0 0 0
-0 -0 -0 -0 0 0 0 0 0 0 0 0 0 0 0 0 0 0 0 0 -0 0 -0 0 0 0 0 0 0 0 0 0 0 0 0 0 0 0 0 0 0 0 0 0 0 0 0
0 0 0 0 0 0 0 0 0 0 0 0 0 0 0 0 0 0 0 0 -0 0 0 0 0 0 0 0 0 0 0 0 0 0 0 0 0 0 0 0 0 0 0 0 0 0 0
0 0 0 0 0 0 0 0 0 0 0 0 0 0 0 0 0 0 0 0 0 0 0 0 0 0 0 0 0 0 0 0 0 0 0 0 0 0 0 0 0 0 0 0 0 0 0
0 0 0 0 0 0 0 0 0 0 0 0 0 0 0 0 0 0 0 0 0 0 0 0 0 0 0 0 0 0 0 0 0 0 0 0 0 0 0 0 0 0 0 0 0 0 0
0 0 0 0 0 0 0 0 0 0 0 0 0 0 0 0 0 0 0 0 0 0 0 0 0 0 0 0 0 0 0 0 0 0 0 0 0 0 0 0 0 0 0 0 0 0 0
Wind_Speed_500mb
23 24 25 26 26 27 28 29 30 32 32 33 33 34 35 35 35 33 31 30 29 28 25 22 20 19 16 11 8 4 8 22 24 21 18 14 15 3 6 6 2 6 4 4 9 2 10
22 23 25 26 26 28 29 30 31 32 34 35 36 37 37 38 38 36 33 31 31 29 24 20 18 17 13 7 9 10 10 17 18 23 22 21 11 17 17 8 4 5 9 7 17 16 12
22 24 25 27 28 29 31 32 33 34 35 37 38 39 40 41 41 39 36 33 32 28 22 18 17 16 21 21 7 14 17 9 7 10 23 25 28 29 15 14 19 8 5 12 12 0 4
23 25 27 28 30 32 33 34 35 37 37 39 40 41 42 43 43 40 37 34 27 20 14 12 15 17 15 11 29 31 21 16 19 21 20 23 23 22 8 5 14 10 8 7 3 4 3
25 27 29 31 33 34 35 37 39 40 41 41 42 43 43 44 44 39 33 29 22 12 6 8 13 11 12 10 23 32 33 25 19 14 23 22 9 7 2 7 11 12 2 6 14 11 8
28 28 30 33 34 34 36 38 40 42 43 44 44 44 43 44 43 36 30 14 12 4 3 8 12 8 9 11 2 23 35 30 17 16 10 14 10 7 7 9 5 5 8 8 11 8 6
29 28 28 31 32 33 35 38 40 41 42 44 45 45 43 42 42 27 27 8 11 4 17 16 17 23 37 15 7 14 15 22 18 6 5 5 7 12 9 11 10 6 6 13 8 2 3
28 25 26 29 31 33 35 38 39 39 41 43 45 44 41 39 35 18 20 17 22 22 23 38 46 47 42 30 12 12 16 16 11 9 4 10 15 7 6 5 8 7 7 11 13 4 3
24 24 25 28 31 34 37 38 39 40 41 44 45 45 40 35 22 18 9 22 33 27 8 19 10 15 20 28 17 15 23 20 9 9 9 13 8 9 7 1 5 6 9 10 15 5 5
24 25 27 31 34 37 38 38 40 42 44 46 46 43 39 33 9 20 1 20 28 21 9 14 7 3 13 14 7 25 26 24 3 20 13 10 8 8 5 4 8 9 8 21 5 7 3
28 32 34 36 37 38 39 39 41 43 45 49 47 44 35 29 27 21 11 16 19 7 7 4 2 5 17 11 4 3 33 17 14 11 13 14 10 7 4 8 8 9 19 13 15 9 7
32 33 35 35 36 38 39 40 41 44 47 50 49 43 34 27 22 10 15 15 4 11 7 13 7 5 6 7 4 6 9 14 8 9 5 13 4 6 12 6 12 11 13 18 11 7 8
33 34 35 36 37 38 40 41 44 47 48 51 49 38 32 23 15 14 10 6 10 7 11 14 8 9 8 7 6 0 7 4 10 7 5 10 11 6 9 4 5 12 12 7 7 4 12
34 36 38 38 39 40 41 43 45 47 50 53 49 31 20 19 16 9 3 9 5 5 8 8 10 8 4 8 4 3 11 6 2 10 6 11 12 13 9 16 15 12 16 11 12 8 10
33 35 37 38 39 39 41 44 45 46 48 53 44 22 10 7 8 18 6 7 10 9 7 14 17 13 13 8 3 3 11 14 18 19 16 11 11 9 10 8 15 6 8 9 15 7 4
34 36 38 37 36 37 39 41 43 43 43 48 38 16 17 9 17 23 9 6 6 7 8 6 3 4 6 11 6 6 8 8 8 23 8 12 3 3 8 5 6 7 11 6 5 9 7
37 38 38 34 32 33 35 37 40 41 40 36 22 6 11 21 16 4 7 11 9 14 7 2 4 7 8 7 2 3 3 6 5 5 7 9 9 12 7 6 13 3 1 10 9 8 11
36 35 34 33 31 31 33 34 37 39 38 29 10 6 14 18 6 4 3 6 6 14 14 12 5 15 9 4 6 2 3 8 11 10 14 11 10 10 25 7 3 4 10 12 10 7 1
38 38 35 35 34 33 27 30 32 36 38 36 10 7 9 3 5 6 9 8 7 7 8 3 7 13 9 8 3 7 3 15 9 4 9 11 3 2 19 13 3 6 6 8 10 7 8
39 39 37 37 37 34 25 27 30 30 30 25 8 4 5 4 5 6 6 8 11 17 11 10 9 7 3 7 2 4 3 8 20 9 11 15 5 11 15 14 7 9 3 8 9 8 8
36 38 36 36 37 34 26 28 30 26 24 16 12 4 4 4 7 7 3 8 9 14 12 15 8 3 14 6 3 5 5 10 8 15 8 8 4 4 2 4 10 6 3 0 5 8 10
32 32 33 34 33 30 28 29 29 24 18 14 8 8 8 4 11 5 6 5 5 10 5 11 12 30 12 10 10 6 5 3 5 10 7 3 1 2 5 7 9 10 8 12 8 3 10
31 28 28 29 31 29 27 28 29 24 20 11 10 9 6 7 8 3 1 7 5 15 9 13 17 10 13 10 34 39 29 17 7 4 2 5 5 6 5 2 6 8 1 10 3 5 7
29 26 25 26 28 30 25 25 25 24 18 15 13 9 8 6 4 2 7 8 12 7 9 26 21 6 13 52 25 4 4 14 17 11 2 9 7 4 4 5 7 7 2 4 8 7 10
31 26 24 23 25 25 24 24 21 20 16 11 8 8 6 5 6 16 9 9 26 26 8 15 12 23 33 18 5 7 8 5 3 8 11 2 9 6 6 2 5 6 9 10 11 9 11
31 27 23 24 23 22 21 20 20 18 15 7 2 4 4 6 7 7 6 16 5 8 11 13 27 21 20 3 6 7 9 6 5 6 4 8 11 8 6 8 13 12 6 7 14 8 15
29 29 22 22 22 22 21 18 17 17 16 9 6 9 4 8 17 11 7 3 11 5 6 15 23 17 23 4 5 5 6 5 4 5 4 7 6 8 3 3 10 12 8 25 9 12 18
30 30 22 21 20 21 21 20 18 18 18 13 8 12 13 13 44 50 44 31 21 12 5 14 18 4 7 7 4 3 5 4 3 4 3 5 6 5 4 4 8 12 9 11 8 8 13
29 27 24 22 21 21 21 19 19 18 19 20 13 15 24 25 39 51 69 73 62 50 27 10 8 11 8 5 1 4 7 2 5 3 1 5 10 6 13 9 8 10 13 20 18 16 17
Wind_Direction_500mb
26 24 20 17 14 11 9 7 4 1 358 356 353 348 344 340 335 331 327 323 317 311 310 310 309 315 318 283 262 180 102 174 192 208 224 226 241 243 298 273 232 225 280 245 297 280 125
14 12 9 7 4 2 1 359 358 355 353 351 349 346 342 339 335 331 328 323 313 305 304 300 299 306 306 283 241 228 171 171 204 218 224 223 253 284 290 275 233 162 26 17 10 17 104
1 359 358 356 354 353 352 351 349 348 347 346 345 343 342 339 335 331 330 321 310 304 297 288 289 293 281 238 223 210 171 159 206 243 231 231 243 259 307 332 336 28 99 64 4 97 107
348 347 346 345 345 344 343 342 340 340 340 341 340 341 341 339 335 333 333 323 320 309 287 274 278 289 260 195 203 203 204 228 256 243 253 263 240 259 238 296 355 18 43 305 151 180 251
338 337 337 336 336 335 337 336 335 334 334 335 335 338 339 340 336 337 342 329 335 319 258 253 268 268 264 201 218 212 221 237 220 230 236 244 227 206 122 70 11 2 150 304 315 349 208
331 330 334 335 333 331 331 332 331 330 330 330 331 333 337 341 340 343 355 342 348 27 52 279 248 270 241 165 257 210 224 222 224 228 193 194 165 94 50 68 251 284 300 264 240 273 340
328 331 335 337 339 336 334 333 330 327 327 327 327 330 335 342 342 352 8 3 352 298 295 245 259 267 279 287 260 201 199 213 221 215 165 23 78 226 198 198 204 230 243 257 256 268 34
326 329 331 334 337 339 339 339 338 333 329 326 325 326 331 340 344 8 28 55 26 321 300 288 273 261 251 258 300 214 218 173 151 185 96 24 238 177 168 208 197 204 229 249 292 151 114
325 327 328 330 333 335 336 336 338 338 336 333 327 324 326 338 345 360 34 14 355 342 278 299 279 257 246 227 226 228 182 171 139 140 169 171 239 117 166 155 335 246 203 230 229 77 72
326 325 324 325 327 330 330 331 333 335 335 335 331 325 323 336 357 352 110 344 343 335 47 283 315 352 163 146 230 217 185 173 126 183 167 228 252 233 135 206 154 287 212 248 163 68 290
325 325 323 323 323 324 326 327 329 330 333 335 332 328 319 325 328 333 299 320 326 339 24 331 69 132 172 180 127 206 204 210 161 170 121 239 182 173 175 197 165 256 43 65 89 69 27
329 329 328 327 326 325 324 323 324 327 330 329 330 328 312 312 323 346 323 328 326 42 273 335 97 52 105 279 293 119 159 201 165 126 341 226 237 208 211 176 184 135 64 44 52 43 337
330 329 329 329 328 327 326 324 324 326 328 326 329 324 302 295 301 315 319 356 47 128 319 331 331 8 249 214 225 97 120 147 146 103 278 321 259 240 162 131 48 79 67 13 3 5 226
329 327 325 323 322 322 323 324 325 326 328 326 331 321 290 292 281 257 330 54 125 260 278 315 310 307 213 174 204 125 102 184 194 97 111 174 313 182 172 173 183 174 155 154 203 206 263
330 328 326 324 321 319 320 321 323 325 329 328 335 332 327 276 223 186 150 71 210 217 305 333 325 49 341 12 147 121 176 198 207 172 176 159 272 280 203 157 131 180 160 180 104 350 34
335 333 331 327 322 320 321 323 326 328 332 334 341 357 12 109 139 152 76 240 241 234 321 348 299 22 340 304 43 45 203 198 249 193 174 203 324 269 289 95 53 164 154 80 5 139 225
342 341 339 336 332 328 328 330 331 334 338 339 344 51 66 124 128 123 143 228 270 268 266 269 291 310 249 285 224 303 231 262 239 49 123 130 124 283 360 180 185 75 73 42 121 125 159
348 349 347 344 341 333 334 338 340 340 347 350 9 57 138 132 50 45 136 211 299 278 271 256 206 216 238 269 291 282 255 235 20 153 156 209 158 204 226 266 360 139 173 156 129 227 92
352 352 351 347 347 344 345 346 350 352 358 3 18 58 150 314 81 344 309 300 260 305 291 206 270 200 170 273 269 191 262 279 355 123 173 180 230 11 335 351 51 188 141 102 102 84 197
354 354 354 358 357 355 1 358 359 358 2 5 21 45 62 180 82 121 356 308 322 308 263 258 262 284 218 250 295 303 290 291 339 24 60 116 113 159 192 204 161 128 111 143 113 108 177
357 359 359 360 2 2 10 7 4 3 9 21 23 54 34 333 3 13 360 329 348 350 330 337 313 336 248 164 145 260 260 312 327 16 82 93 64 275 60 72 75 103 7 359 128 143 159
351 356 1 4 5 7 5 4 10 10 14 42 37 21 3 341 318 321 345 9 341 324 270 315 360 325 11 58 9 301 325 230 251 333 65 30 48 300 73 36 116 90 41 77 59 30 284
344 346 354 359 1 1 359 360 7 14 21 48 40 22 349 344 341 83 92 319 329 354 283 282 328 331 344 332 308 284 283 276 276 319 46 73 108 57 206 91 150 39 222 105 125 270 215
345 342 347 353 357 360 355 358 5 11 22 36 27 24 11 294 341 360 336 290 287 319 267 297 321 356 304 322 337 27 42 84 75 38 180 133 100 96 240 4 193 240 278 124 160 213 236
349 340 338 342 350 353 357 356 360 6 19 22 35 35 27 298 285 300 347 313 314 315 248 270 279 304 315 309 54 9 328 289 14 43 20 11 127 90 127 101 324 309 239 180 163 262 203
342 337 333 335 340 343 346 348 347 350 355 3 345 50 350 325 257 253 333 303 292 317 323 279 308 333 351 91 90 168 218 249 296 349 109 61 72 118 138 154 198 226 222 213 114 284 200
332 338 328 330 333 336 337 335 333 333 338 338 282 254 258 275 275 263 220 276 301 331 285 295 336 330 358 37 90 156 241 190 206 255 310 353 11 121 147 173 286 237 189 144 118 237 174
326 334 325 323 321 326 329 330 324 316 318 326 290 258 259 256 281 275 266 254 254 237 206 317 333 291 335 57 112 253 218 220 111 243 213 184 149 184 96 102 270 152 101 178 272 186 198
321 326 324 317 317 320 321 325 322 311 306 305 297 259 258 279 263 279 281 278 265 254 255 274 275 309 270 72 360 186 242 103 171 234 46 269 187 187 183 216 255 196 252 280 300 296 290
Wind_Speed_850mb
23 24 25 26 26 27 28 29 30 32 32 33 33 34 35 35 35 33 31 30 29 28 25 22 20 19 16 11 8 4 8 22 24 21 18 14 15 3 6 6 2 6 4 4 9 2 10
22 23 25 26 26 28 29 30 31 32 34 35 36 37 37 38 38 36 33 31 31 29 24 20 18 17 13 7 9 10 10 17 18 23 22 21 11 17 17 8 4 5 9 7 17 16 12
22 24 25 27 28 29 31 32 33 34 35 37 38 39 40 41 41 39 36 33 32 28 22 18 17 16 21 21 7 14 17 9 7 10 23 25 28 29 15 14 19 8 5 12 12 0 4
23 25 27 28 30 32 33 34 35 37 37 39 40 41 42 43 43 40 37 34 27 20 14 12 15 17 15 11 29 31 21 16 19 21 20 23 23 22 8 5 14 10 8 7 3 4 3
25 27 29 31 33 34 35 37 39 40 41 41 42 43 43 44 44 39 33 29 22 12 6 8 13 11 12 10 23 32 33 25 19 14 23 22 9 7 2 7 11 12 2 6 14 11 8
28 28 30 33 34 34 36 38 40 42 43 44 44 44 43 44 43 36 30 14 12 4 3 8 12 8 9 11 2 23 35 30 17 16 10 14 10 7 7 9 5 5 8 8 11 8 6
29 28 28 31 32 33 35 38 40 41 42 44 45 45 43 42 42 27 27 8 11 4 17 16 17 23 37 15 7 14 15 22 18 6 5 5 7 12 9 11 10 6 6 13 8 2 3
28 25 26 29 31 33 35 38 39 39 41 43 45 44 41 39 35 18 20 17 22 22 23 38 46 47 42 30 12 12 16 16 11 9 4 10 15 7 6 5 8 7 7 11 13 4 3
24 24 25 28 31 34 37 38 39 40 41 44 45 45 40 35 22 18 9 22 33 27 8 19 10 15 20 28 17 15 23 20 9 9 9 13 8 9 7 1 5 6 9 10 15 5 5
24 25 27 31 34 37 38 38 40 42 44 46 46 43 39 33 9 20 1 20 28 21 9 14 7 3 13 14 7 25 26 24 3 20 13 10 8 8 5 4 8 9 8 21 5 7 3
28 32 34 36 37 38 39 39 41 43 45 49 47 44 35 29 27 21 11 16 19 7 7 4 2 5 17 11 4 3 33 17 14 11 13 14 10 7 4 8 8 9 19 13 15 9 7
32 33 35 35 36 38 39 40 41 44 47 50 49 43 34 27 22 10 15 15 4 11 7 13 7 5 6 7 4 6 9 14 8 9 5 13 4 6 12 6 12 11 13 18 11 7 8
33 34 35 36 37 38 40 41 44 47 48 51 49 38 32 23 15 14 10 6 10 7 11 14 8 9 8 7 6 0 7 4 10 7 5 10 11 6 9 4 5 12 12 7 7 4 12
34 36 38 38 39 40 41 43 45 47 50 53 49 31 20 19 16 9 3 9 5 5 8 8 10 8 4 8 4 3 11 6 2 10 6 11 12 13 9 16 15 12 16 11 12 8 10
33 35 37 38 39 39 41 44 45 46 48 53 44 22 10 7 8 18 6 7 10 9 7 14 17 13 13 8 3 3 11 14 18 19 16 11 11 9 10 8 15 6 8 9 15 7 4
34 36 38 37 36 37 39 41 43 43 43 48 38 16 17 9 17 23 9 6 6 7 8 6 3 4 6 11 6 6 8 8 8 23 8 12 3 3 8 5 6 7 11 6 5 9 7
37 38 38 34 32 33 35 37 40 41 40 36 22 6 11 21 16 4 7 11 9 14 7 2 4 7 8 7 2 3 3 6 5 5 7 9 9 12 7 6 13 3 1 10 9 8 11
36 35 34 33 31 31 33 34 37 39 38 29 10 6 14 18 6 4 3 6 6 14 14 12 5 15 9 4 6 2 3 8 11 10 14 11 10 10 25 7 3 4 10 12 10 7 1
38 38 35 35 34 33 27 30 32 36 38 36 10 7 9 3 5 6 9 8 7 7 8 3 7 13 9 8 3 7 3 15 9 4 9 11 3 2 19 13 3 6 6 8 10 7 8
39 39 37 37 37 34 25 27 30 30 30 25 8 4 5 4 5 6 6 8 11 17 11 10 9 7 3 7 2 4 3 8 20 9 11 15 5 11 15 14 7 9 3 8 9 8 8
36 38 36 36 37 34 26 28 30 26 24 16 12 4 4 4 7 7 3 8 9 14 12 15 8 3 14 6 3 5 5 10 8 15 8 8 4 4 2 4 10 6 3 0 5 8 10
32 32 33 34 33 30 28 29 29 24 18 14 8 8 8 4 11 5 6 5 5 10 5 11 12 30 12 10 10 6 5 3 5 10 7 3 1 2 5 7 9 10 8 12 8 3 10
31 28 28 29 31 29 27 28 29 24 20 11 10 9 6 7 8 3 1 7 5 15 9 13 17 10 13 10 34 39 29 17 7 4 2 5 5 6 5 2 6 8 1 10 3 5 7
29 26 25 26 28 30 25 25 25 24 18 15 13 9 8 6 4 2 7 8 12 7 9 26 21 6 13 52 25 4 4 14 17 11 2 9 7 4 4 5 7 7 2 4 8 7 10
31 26 24 23 25 25 24 24 21 20 16 11 8 8 6 5 6 16 9 9 26 26 8 15 12 23 33 18 5 7 8 5 3 8 11 2 9 6 6 2 5 6 9 10 11 9 11
31 27 23 24 23 22 21 20 20 18 15 7 2 4 4 6 7 7 6 16 5 8 11 13 27 21 20 3 6 7 9 6 5 6 4 8 11 8 6 8 13 12 6 7 14 8 15
29 29 22 22 22 22 21 18 17 17 16 9 6 9 4 8 17 11 7 3 11 5 6 15 23 17 23 4 5 5 6 5 4 5 4 7 6 8 3 3 10 12 8 25 9 12 18
30 30 22 21 20 21 21 20 18 18 18 13 8 12 13 13 44 50 44 31 21 12 5 14 18 4 7 7 4 3 5 4 3 4 3 5 6 5 4 4 8 12 9 11 8 8 13
29 27 24 22 21 21 21 19 19 18 19 20 13 15 24 25 39 51 69 73 62 50 27 10 8 11 8 5 1 4 7 2 5 3 1 5 10 6 13 9 8 10 13 20 18 16 17
Wind_Direction_850mb
26 24 20 17 14 11 9 7 4 1 358 356 353 348 344 340 335 331 327 323 317 311 310 310 309 315 318 283 262 180 102 174 192 208 224 226 241 243 298 273 232 225 280 245 297 280 125
14 12 9 7 4 2 1 359 358 355 353 351 349 346 342 339 335 331 328 323 313 305 304 300 299 306 306 283 241 228 171 171 204 218 224 223 253 284 290 275 233 162 26 17 10 17 104
1 359 358 356 354 353 352 351 349 348 347 346 345 343 342 339 335 331 330 321 310 304 297 288 289 293 281 238 223 210 171 159 206 243 231 231 243 259 307 332 336 28 99 64 4 97 107
348 347 346 345 345 344 343 342 340 340 340 341 340 341 341 339 335 333 333 323 320 309 287 274 278 289 260 195 203 203 204 228 256 243 253 263 240 259 238 296 355 18 43 305 151 180 251
338 337 337 336 336 335 337 336 335 334 334 335 335 338 339 340 336 337 342 329 335 319 258 253 268 268 264 201 218 212 221 237 220 230 236 244 227 206 122 70 11 2 150 304 315 349 208
331 330 334 335 333 331 331 332 331 330 330 330 331 333 337 341 340 343 355 342 348 27 52 279 248 270 241 165 257 210 224 222 224 228 193 194 165 94 50 68 251 284 300 264 240 273 340
328 331 335 337 339 336 334 333 330 327 327 327 327 330 335 342 342 352 8 3 352 298 295 245 259 267 279 287 260 201 199 213 221 215 165 23 78 226 198 198 204 230 243 257 256 268 34
326 329 331 334 337 339 339 339 338 333 329 326 325 326 331 340 344 8 28 55 26 321 300 288 273 261 251 258 300 214 218 173 151 185 96 24 238 177 168 208 197 204 229 249 292 151 114
325 327 328 330 333 335 336 336 338 338 336 333 327 324 326 338 345 360 34 14 355 342 278 299 279 257 246 227 226 228 182 171 139 140 169 171 239 117 166 155 335 246 203 230 229 77 72
326 325 324 325 327 330 330 331 333 335 335 335 331 325 323 336 357 352 110 344 343 335 47 283 315 352 163 146 230 217 185 173 126 183 167 228 252 233 135 206 154 287 212 248 163 68 290
325 325 323 323 323 324 326 327 329 330 333 335 332 328 319 325 328 333 299 320 326 339 24 331 69 132 172 180 127 206 204 210 161 170 121 239 182 173 175 197 165 256 43 65 89 69 27
329 329 328 327 326 325 324 323 324 327 330 329 330 328 312 312 323 346 323 328 326 42 273 335 97 52 105 279 293 119 159 201 165 126 341 226 237 208 211 176 184 135 64 44 52 43 337
330 329 329 329 328 327 326 324 324 326 328 326 329 324 302 295 301 315 319 356 47 128 319 331 331 8 249 214 225 97 120 147 146 103 278 321 259 240 162 131 48 79 67 13 3 5 226
329 327 325 323 322 322 323 324 325 326 328 326 331 321 290 292 281 257 330 54 125 260 278 315 310 307 213 174 204 125 102 184 194 97 111 174 313 182 172 173 183 174 155 154 203 206 263
330 328 326 324 321 319 320 321 323 325 329 328 335 332 327 276 223 186 150 71 210 217 305 333 325 49 341 12 147 121 176 198 207 172 176 159 272 280 203 157 131 180 160 180 104 350 34
335 333 331 327 322 320 321 323 326 328 332 334 341 357 12 109 139 152 76 240 241 234 321 348 299 22 340 304 43 45 203 198 249 193 174 203 324 269 289 95 53 164 154 80 5 139 225
342 341 339 336 332 328 328 330 331 334 338 339 344 51 66 124 128 123 143 228 270 268 266 269 291 310 249 285 224 303 231 262 239 49 123 130 124 283 360 180 185 75 73 42 121 125 159
348 349 347 344 341 333 334 338 340 340 347 350 9 57 138 132 50 45 136 211 299 278 271 256 206 216 238 269 291 282 255 235 20 153 156 209 158 204 226 266 360 139 173 156 129 227 92
352 352 351 347 347 344 345 346 350 352 358 3 18 58 150 314 81 344 309 300 260 305 291 206 270 200 170 273 269 191 262 279 355 123 173 180 230 11 335 351 51 188 141 102 102 84 197
354 354 354 358 357 355 1 358 359 358 2 5 21 45 62 180 82 121 356 308 322 308 263 258 262 284 218 250 295 303 290 291 339 24 60 116 113 159 192 204 161 128 111 143 113 108 177
357 359 359 360 2 2 10 7 4 3 9 21 23 54 34 333 3 13 360 329 348 350 330 337 313 336 248 164 145 260 260 312 327 16 82 93 64 275 60 72 75 103 7 359 128 143 159
351 356 1 4 5 7 5 4 10 10 14 42 37 21 3 341 318 321 345 9 341 324 270 315 360 325 11 58 9 301 325 230 251 333 65 30 48 300 73 36 116 90 41 77 59 30 284
344 346 354 359 1 1 359 360 7 14 21 48 40 22 349 344 341 83 92 319 329 354 283 282 328 331 344 332 308 284 283 276 276 319 46 73 108 57 206 91 150 39 222 105 125 270 215
345 342 347 353 357 360 355 358 5 11 22 36 27 24 11 294 341 360 336 290 287 319 267 297 321 356 304 322 337 27 42 84 75 38 180 133 100 96 240 4 193 240 278 124 160 213 236
349 340 338 342 350 353 357 356 360 6 19 22 35 35 27 298 285 300 347 313 314 315 248 270 279 304 315 309 54 9 328 289 14 43 20 11 127 90 127 101 324 309 239 180 163 262 203
342 337 333 335 340 343 346 348 347 350 355 3 345 50 350 325 257 253 333 303 292 317 323 279 308 333 351 91 90 168 218 249 296 349 109 61 72 118 138 154 198 226 222 213 114 284 200
332 338 328 330 333 336 337 335 333 333 338 338 282 254 258 275 275 263 220 276 301 331 285 295 336 330 358 37 90 156 241 190 206 255 310 353 11 121 147 173 286 237 189 144 118 237 174
326 334 325 323 321 326 329 330 324 316 318 326 290 258 259 256 281 275 266 254 254 237 206 317 333 291 335 57 112 253 218 220 111 243 213 184 149 184 96 102 270 152 101 178 272 186 198
321 326 324 317 317 320 321 325 322 311 306 305 297 259 258 279 263 279 281 278 265 254 255 274 275 309 270 72 360 186 242 103 171 234 46 269 187 187 183 216 255 196 252 280 300 296 290